Flag for Germany Weather past 2 weeks in Ansbach, Bavaria, Germany

Now
61 °F

Drizzle. Cloudy.


Feels Like: 61 °F
Forecast: 56 / 66 °F
Wind: 9 mph from Southwest

Location: Ansbach / Katterbach

Current Time: May 3, 2015 at 5:02:45 PM

Latest Report: May 3, 2015 at 4:01 PM


Visibility: N/A

Pressure: 29.76 "Hg

Humidity: 100%

Dew point: 61 °F

Location of AnsbachLocation

Historic Weather in Ansbach — Graph

°F

Ansbach temperature yesterday

Maximum temperature yesterday: 53 °F (at 6:58 PM)
Minimum temperature yesterday: 44 °F (at 5:58 AM)
Average temperature yesterday: 48 °F

Past Weeks' High & Low Weather Summary

 TemperatureHumidityPressure
High67 °F (Apr 26, 4:58 PM)100% (Apr 23, 12:58 AM)30.41 "Hg (Apr 23, 12:58 AM)
Low32 °F (Apr 19, 4:58 AM)26% (Apr 21, 4:58 PM)29.55 "Hg (Apr 27, 5:58 PM)
Average50 °F73%30.02 "Hg
* Reported Apr 18 4:58 PM — May 3 4:01 PM, Ansbach, Weather by CustomWeather, © 2015

Note: Actual official high and low records may vary slightly from our data, if they occured in-between our weather recording intervals... More about our weather records

Advertising

Ansbach weather history for previous 24 hours

 ConditionsComfort  
Time TempWeatherWind HumidityBarometerVisibility
4:01 PM
Sun, May 3
61 °FDrizzle. Cloudy.9 mph100%29.76 "HgN/A
3:58 PM60 °FMostly cloudy.8 mph100%29.79 "HgN/A
3:04 PM59 °FMore clouds than sun.7 mph100%29.77 "HgN/A
2:58 PM59 °FLight rain. More clouds than sun.9 mph100%29.80 "HgN/A
2:03 PM59 °FMostly cloudy.8 mph100%29.77 "HgN/A
1:58 PM59 °FMostly cloudy.8 mph100%29.80 "HgN/A
12:58 PM57 °FLight rain. Fog.7 mph100%29.80 "Hg3 mi
11:58 AM56 °FLow clouds.6 mph100%29.80 "HgN/A
11:04 AM55 °FLow clouds.7 mph100%29.76 "HgN/A
10:58 AM54 °FLow clouds.6 mph100%29.80 "HgN/A
9:58 AM52 °FLow clouds.10 mph100%29.80 "HgN/A
8:58 AM52 °FLow clouds.10 mph100%29.81 "HgN/A
8:04 AM50 °FDrizzle. Fog.7 mph100%29.78 "Hg6 mi
7:58 AM50 °FDrizzle. Mostly cloudy.7 mph100%29.82 "HgN/A
6:58 AM50 °FDrizzle. Broken clouds.8 mph100%29.81 "HgN/A
5:58 AM50 °FLight rain. Fog.6 mph100%29.81 "Hg3 mi
4:58 AM50 °FLight rain. Fog.6 mph100%29.82 "Hg5 mi
3:58 AM50 °FLight rain. Passing clouds.6 mph100%29.84 "HgN/A
2:58 AM50 °FPassing clouds.7 mph100%29.84 "HgN/A
1:58 AM48 °FPartly cloudy.5 mph100%29.88 "HgN/A
12:58 AM48 °FOvercast.6 mph100%29.90 "HgN/A
11:58 PM
Sat, May 2
47 °FMostly cloudy.3 mph100%29.90 "HgN/A
10:58 PM48 °FMostly cloudy.5 mph100%29.93 "HgN/A
9:58 PM48 °FPassing clouds.5 mph100%29.93 "HgN/A
8:58 PM50 °FScattered clouds.5 mph100%29.93 "HgN/A
7:58 PM52 °FScattered clouds.3 mph94%29.93 "HgN/A
6:58 PM53 °FOvercast.5 mph85%29.93 "HgN/A
5:58 PM52 °FOvercast.5 mph88%29.94 "HgN/A
Weather by CustomWeather, © 2015

See weather overviewHow to use our weather pages